[[{"header":{"parameterUnit":"m.s-1","parameterCategory":1,"la1":30.2991,"la2":30.254,"lo1":-89.0895,"lo2":-89.0444,"dy":0.0017,"dx":0.0017,"nx":28,"ny":28,"refTime":"2024-10-02T09:00:00:Z","depth":0,"parameterNumber":2,"parameterNumberName":"U-component_of_WINDS"},"data":[0,0,0,0,0,0,0,0,0,0,0,0,0,0,0,0,0,0,0,0,0,0,0,0,0,0,0,0,0,0,0,0,0,0,0,0,0,0,0,0,0,0,0,0,0,0,0,0,0,0,0,0,0,0,0,0,0,0,-2.8863,-2.8864,0,-2.9014,-2.9015,-2.9017,-2.8991,-2.8988,-2.8986,-2.8983,-2.9143,-2.915,-2.9156,0,0,0,0,0,0,0,0,0,0,0,0,0,-2.8556,-2.8562,-2.8862,-2.8864,-2.8866,-2.9013,-2.9016,-2.9018,-2.8991,-2.8988,-2.8985,-2.8982,-2.9141,-2.9149,-2.9157,0,0,0,0,0,0,0,0,0,0,0,0,0,-2.8697,-2.8564,-2.8862,-2.8871,-2.8873,-2.9013,-2.9016,-2.9018,-2.8992,-2.8988,-2.8984,-2.898,-2.9138,-2.9148,-2.9158,-2.9301,0,0,-2.9189,-2.9193,0,0,0,0,0,0,0,0,-2.8689,-2.8708,-2.8868,-2.887,-2.8873,-2.8979,-2.8966,-2.9113,-2.8993,-2.8947,-2.8983,-2.8978,-2.9092,-2.9106,-2.9143,-2.9308,-2.9315,-2.919,-2.9196,-2.92,-2.9203,0,0,0,0,0,0,0,-2.8679,-2.8701,-2.8922,-2.887,-2.8873,-2.8869,-2.8884,-2.8994,-2.904,-2.8951,-2.8949,-2.8967,-2.9093,-2.9134,-2.9147,-2.9317,-2.919,-2.9199,-2.9205,-2.9209,-2.9609,-2.9613,0,0,0,0,0,0,-2.8666,-2.8693,-2.8918,-2.8927,-2.8769,-2.8878,-2.8895,-2.8949,-2.9039,-2.9049,-2.897,-2.8965,-2.9118,-2.9135,-2.9152,-2.9327,-2.92,-2.921,-2.9216,-2.9604,-2.961,-2.9615,0,0,0,0,0,0,-2.8659,-2.8686,-2.8912,-2.881,-2.8838,-2.8887,-2.8948,-2.8954,-2.8995,-2.9054,-2.9063,-2.9003,-2.9116,-2.9138,-2.9264,-2.9332,-2.9214,-2.9224,-2.9599,-2.9606,-2.9612,-2.9676,0,0,0,0,0,0,-2.8651,-2.8684,-2.8737,-2.8811,-2.8844,-2.9019,-2.8953,-2.896,-2.9012,-2.9007,-2.9087,-2.9096,-2.9114,-2.9249,-2.9274,-2.9344,-2.9232,-2.9593,-2.9602,-2.961,-2.9668,-2.9684,-2.9698,0,0,0,0,0,-2.864,-2.875,-2.874,-2.8767,-2.8911,-2.9023,-2.9042,-2.9059,-2.9017,-2.9073,-2.9111,-2.9094,-2.932,-2.9262,-2.929,-2.9364,-2.9589,-2.96,-2.961,-2.9661,-2.9681,-2.9697,0,0,0,0,0,0,-2.8685,-2.876,-2.875,-2.8887,-2.8949,-2.9019,-2.9089,-2.9079,-2.9156,-2.9148,-2.9167,-2.9186,-2.9314,-2.9351,-2.9286,-2.9507,-2.9449,-2.9465,-2.9479,-2.9498,-2.9512,-2.9502,-2.924,0,0,0,0,0,-2.871,-2.8793,-2.8855,-2.897,-2.9001,-2.904,-2.9089,-2.9097,-2.9162,-2.9189,-2.9236,-2.9302,-2.9388,-2.9445,-2.9527,-2.9672,-2.9691,-2.9737,-2.9752,-2.9764,-2.9779,-2.986,-2.9882,-2.9649,-2.9648,-2.9648,0,0,-2.8765,-2.8816,-2.8867,-2.898,-2.9029,-2.9117,-2.9062,-2.9157,-2.9223,-2.9204,-2.9326,-2.9363,-2.9438,-2.9575,-2.9637,-2.961,-2.9847,-2.9777,-2.9786,-2.9794,-2.9873,-2.9895,-2.9915,-2.9656,-2.9654,-2.9653,0,0,-2.8909,-2.8955,-2.9056,-2.9106,-2.918,-2.9205,-2.9229,-2.9301,-2.9324,-2.9446,-2.9435,-2.9514,-2.9661,-2.9716,-2.9763,-2.9927,-2.9916,-2.9953,-3.0032,-3.0112,-3.013,-3.0147,-3.0208,-3.0229,-2.9967,-2.9968,-2.9968,0,-2.8967,-2.9097,-2.911,-2.9206,-2.9257,-2.9242,-2.9347,-2.9395,-2.9493,-2.953,-2.9496,-2.9682,-2.9731,-2.9881,-2.9921,-2.9959,-2.9989,-2.9946,-3.0126,-3.0143,-3.0159,-3.0217,-3.024,-2.9972,-2.9971,-2.9971,-2.997,0,-2.9167,-2.9257,-2.933,-2.9424,-2.9483,-2.9583,-2.9613,-2.9671,-2.9674,-2.9703,-2.9828,-2.9887,-2.9981,-3.0017,-3.0021,-3.0169,-3.0149,-3.0121,-3.0063,-3.0185,-3.024,-3.0263,-2.9978,-2.9976,-2.9975,-2.9974,0,0,-2.9345,-2.9444,-2.9471,-2.9514,-2.9594,-2.9666,-2.9765,-2.9856,-2.9907,-2.9975,-3.0061,-3.0186,-3.016,-3.0213,-3.0223,-3.0293,-3.0422,-3.0256,-3.0258,-3.0287,-3.0592,-3.0614,-3.064,-3.0414,-3.0418,-3.0421,-3.0586,0,-2.9498,-2.9673,-2.9688,-2.9846,-2.9931,-2.9918,-3.0005,-3.0065,-3.0095,-3.0172,-3.0205,-3.0294,-3.0253,-3.0285,-3.0353,-3.0392,-3.0484,-3.038,-3.0497,-3.0501,-3.0481,-3.0668,-3.0692,-3.0845,-3.0608,-3.0611,-3.0614,0,-2.9701,-2.9774,-2.994,-3.0009,-3.0046,-3.0124,-3.0209,-3.0282,-3.0351,-3.0368,-3.0427,-3.0427,-3.0532,-3.0468,-3.0614,-3.0543,-3.0592,-3.0618,-3.0624,-3.0638,-3.0566,-3.069,-3.0894,-3.0918,-3.0648,-3.0645,-3.0643,0,-2.9817,-2.9957,-3.0074,-3.0111,-3.0195,-3.025,-3.0288,-3.0352,-3.0406,-3.0481,-3.0517,-3.0603,-3.0652,-3.0719,-3.0744,-3.0695,-3.089,-3.0827,-3.0909,-3.0909,-3.0953,-3.095,-3.1171,-3.098,-3.098,-3.0979,-3.0979,0,-2.9988,-3.0091,-3.0128,-3.0201,-3.0316,-3.0332,-3.0447,-3.0482,-3.0539,-3.062,-3.0614,-3.069,-3.0717,-3.0798,-3.0818,-3.0937,-3.0959,-3.0977,-3.0981,-3.0979,-3.0977,-3.1013,-3.1004,-3.0985,-3.0984,-3.0983,-3.0982,0,-3.0139,-3.0167,-3.0295,-3.0363,-3.0383,-3.0465,-3.0525,-3.0596,-3.0623,-3.0726,-3.0751,-3.0796,-3.0891,-3.0922,-3.1037,-3.1051,-3.1191,-3.1185,-3.1168,-3.1169,-3.125,-3.1243,-3.1503,-3.1539,-3.1322,-3.1324,-3.1326,0,-3.0247,-3.0326,-3.0402,-3.0455,-3.0495,-3.058,-3.0635,-3.0654,-3.0712,-3.0796,-3.0858,-3.0952,-3.1029,-3.1183,-3.1227,-3.1316,-3.1314,-3.1398,-3.1327,-3.1323,-3.1318,-3.1314,-3.1323,-3.1413,-3.1415,-3.1417,-3.1418,0,-3.0438,-3.0448,-3.0526,-3.061,-3.0676,-3.0743,-3.0808,-3.0852,-3.0882,-3.0947,-3.1044,-3.1103,-3.1221,-3.1316,-3.1406,-3.1447,-3.144,-3.144,-3.1464,-3.1464,-3.1452,-3.1462,-3.1207,-3.1435,-3.1433,-3.1432,-3.1431,-3.143,-3.0572,-3.0642,-3.0707,-3.0795,-3.0846,-3.0907,-3.0978,-3.1014,-3.1094,-3.1191,-3.1198,-3.1303,-3.1371,-3.1492,-3.1537,-3.1621,-3.1597,-3.1631,-3.1641,-3.1649,-3.1657,-3.1436,-3.1637,-3.1637,-3.1637,-3.1636,-3.1636,0,-3.0764,-3.0805,-3.0886,-3.0977,-3.1047,-3.103,-3.1102,-3.1162,-3.1254,-3.1317,-3.1393,-3.1505,-3.1597,-3.1648,-3.174,-3.1798,-3.1797,-3.1822,-3.1819,-3.1829,-3.1672,-3.1643,-3.1821,-3.1821,-3.1821,-3.1821,-3.1821,-3.1821,-3.0873,-3.0991,-3.1009,-3.1153,-3.1193,-3.1296,-3.1338,-3.1395,-3.1446,-3.1571,-3.1647,-3.1679,-3.1738,-3.1834,-3.1918,-3.1931,-3.1967,-3.1995,-3.2006,-3.1859,-3.184,-3.1822,-3.1795,-3.2002,-3.2002,-3.2156,-3.2157,-3.2158]},{"header":{"parameterUnit":"m.s-1","parameterCategory":1,"la1":30.2991,"la2":30.254,"lo1":-89.0895,"lo2":-89.0444,"dy":0.0017,"dx":0.0017,"nx":28,"ny":28,"refTime":"2024-10-02T09:00:00:Z","depth":0,"parameterNumber":3,"parameterNumberName":"V-component_of_WINDS"},"data":[0,0,0,0,0,0,0,0,0,0,0,0,0,0,0,0,0,0,0,0,0,0,0,0,0,0,0,0,0,0,0,0,0,0,0,0,0,0,0,0,0,0,0,0,0,0,0,0,0,0,0,0,0,0,0,0,0,0,-1.613,-1.6129,0,-1.6034,-1.6033,-1.6032,-1.5969,-1.5969,-1.5968,-1.5968,-1.5866,-1.5864,-1.5861,0,0,0,0,0,0,0,0,0,0,0,0,0,-1.6256,-1.6254,-1.6131,-1.6129,-1.6128,-1.6034,-1.6033,-1.6032,-1.5969,-1.5969,-1.5968,-1.5968,-1.5867,-1.5864,-1.5861,0,0,0,0,0,0,0,0,0,0,0,0,0,-1.6185,-1.6254,-1.6131,-1.6086,-1.6081,-1.6035,-1.6033,-1.6031,-1.5969,-1.5969,-1.5968,-1.5968,-1.5868,-1.5864,-1.5861,-1.5851,0,0,-1.585,-1.5848,0,0,0,0,0,0,0,0,-1.6189,-1.6181,-1.6094,-1.6089,-1.6083,-1.6013,-1.604,-1.5971,-1.5969,-1.6012,-1.5968,-1.5967,-1.5915,-1.5908,-1.5891,-1.5846,-1.5842,-1.585,-1.5848,-1.5846,-1.5845,0,0,0,0,0,0,0,-1.6194,-1.6184,-1.6092,-1.6092,-1.6086,-1.6069,-1.6058,-1.6027,-1.5968,-1.6008,-1.6003,-1.5993,-1.5912,-1.5894,-1.5888,-1.584,-1.585,-1.5847,-1.5844,-1.5843,-1.5781,-1.5781,0,0,0,0,0,0,-1.6207,-1.6189,-1.6095,-1.6089,-1.6136,-1.6067,-1.6055,-1.6036,-1.5968,-1.5957,-1.5993,-1.599,-1.5901,-1.5892,-1.5884,-1.5867,-1.5846,-1.5843,-1.5841,-1.578,-1.5781,-1.5781,0,0,0,0,0,0,-1.621,-1.6199,-1.6099,-1.6138,-1.6124,-1.6066,-1.6045,-1.6035,-1.6017,-1.5957,-1.5946,-1.5986,-1.59,-1.5889,-1.5859,-1.5863,-1.5841,-1.5838,-1.578,-1.5781,-1.5781,-1.5833,0,0,0,0,0,0,-1.6214,-1.6201,-1.6197,-1.6138,-1.6122,-1.6077,-1.6045,-1.6033,-1.6011,-1.6006,-1.5947,-1.5937,-1.5899,-1.5865,-1.5856,-1.5857,-1.5835,-1.5779,-1.578,-1.5781,-1.5831,-1.5836,-1.584,0,0,0,0,0,-1.6218,-1.6215,-1.6197,-1.6186,-1.6117,-1.6078,-1.6068,-1.6025,-1.6012,-1.6007,-1.5969,-1.5939,-1.5864,-1.5863,-1.5852,-1.5852,-1.5779,-1.578,-1.5781,-1.5829,-1.5835,-1.584,0,0,0,0,0,0,-1.6274,-1.6206,-1.6186,-1.6164,-1.6127,-1.6067,-1.606,-1.6033,-1.5998,-1.5995,-1.5942,-1.5929,-1.5905,-1.5875,-1.5875,-1.5838,-1.5818,-1.5817,-1.5858,-1.5863,-1.5867,-1.5874,-1.5832,0,0,0,0,0,-1.6284,-1.626,-1.6201,-1.6187,-1.617,-1.6119,-1.61,-1.607,-1.6029,-1.6013,-1.5973,-1.5933,-1.5901,-1.588,-1.5847,-1.5827,-1.5812,-1.5822,-1.5826,-1.583,-1.5829,-1.5815,-1.5818,-1.5785,-1.5785,-1.5785,0,0,-1.6304,-1.6264,-1.6251,-1.6197,-1.6165,-1.614,-1.6106,-1.608,-1.606,-1.6009,-1.5978,-1.5947,-1.59,-1.5875,-1.5862,-1.585,-1.5835,-1.5831,-1.5835,-1.5832,-1.5816,-1.582,-1.5822,-1.5786,-1.5785,-1.5785,0,0,-1.6327,-1.6295,-1.6279,-1.6248,-1.6201,-1.6167,-1.6163,-1.6107,-1.6085,-1.6054,-1.6015,-1.599,-1.5935,-1.5903,-1.5879,-1.589,-1.5861,-1.5881,-1.5903,-1.589,-1.5892,-1.5894,-1.5897,-1.5899,-1.5881,-1.5881,-1.5881,0,-1.6357,-1.6318,-1.6274,-1.6251,-1.6228,-1.6182,-1.6164,-1.6136,-1.608,-1.6064,-1.6052,-1.5983,-1.5947,-1.5914,-1.5916,-1.5899,-1.5892,-1.5887,-1.5896,-1.5897,-1.5899,-1.59,-1.5902,-1.5883,-1.5883,-1.5883,-1.5882,0,-1.6357,-1.6331,-1.6323,-1.6272,-1.6248,-1.6228,-1.6179,-1.616,-1.6133,-1.6099,-1.6068,-1.6024,-1.5981,-1.5971,-1.5943,-1.5933,-1.5927,-1.5906,-1.5884,-1.5905,-1.5906,-1.5906,-1.5887,-1.5886,-1.5885,-1.5885,0,0,-1.6411,-1.6336,-1.6334,-1.631,-1.6254,-1.6232,-1.621,-1.6169,-1.6153,-1.6116,-1.6094,-1.6049,-1.603,-1.6003,-1.5971,-1.596,-1.597,-1.594,-1.5938,-1.5946,-1.5954,-1.597,-1.5971,-1.5951,-1.5951,-1.5951,-1.5958,0,-1.6425,-1.6383,-1.6343,-1.6315,-1.629,-1.6246,-1.6226,-1.6189,-1.6157,-1.613,-1.6094,-1.6063,-1.604,-1.6024,-1.6011,-1.5972,-1.5971,-1.5971,-1.5929,-1.5928,-1.5941,-1.5972,-1.5988,-1.5996,-1.5958,-1.5958,-1.5958,0,-1.6435,-1.6401,-1.6371,-1.6318,-1.6305,-1.6289,-1.6247,-1.6222,-1.6179,-1.6157,-1.6127,-1.6094,-1.6067,-1.6049,-1.601,-1.6011,-1.5992,-1.597,-1.5969,-1.5963,-1.5944,-1.5965,-1.5998,-1.5999,-1.5959,-1.5959,-1.5959,0,-1.6476,-1.6423,-1.6398,-1.6378,-1.6316,-1.6305,-1.6278,-1.6235,-1.6212,-1.6176,-1.6161,-1.6122,-1.61,-1.607,-1.6026,-1.6018,-1.5991,-1.597,-1.5971,-1.5972,-1.5966,-1.5967,-1.5996,-1.5956,-1.5956,-1.5956,-1.5956,0,-1.6495,-1.6478,-1.6415,-1.64,-1.6379,-1.6333,-1.6313,-1.6283,-1.6244,-1.6221,-1.618,-1.6159,-1.6104,-1.6075,-1.6041,-1.6013,-1.6004,-1.5984,-1.5975,-1.5987,-1.599,-1.5973,-1.597,-1.5956,-1.5956,-1.5956,-1.5956,0,-1.6537,-1.6495,-1.6464,-1.6408,-1.6393,-1.6381,-1.6332,-1.6314,-1.6281,-1.6252,-1.6242,-1.6189,-1.6154,-1.6108,-1.6058,-1.6035,-1.601,-1.5997,-1.6025,-1.602,-1.6022,-1.6022,-1.604,-1.6039,-1.6002,-1.6003,-1.6003,0,-1.6551,-1.6537,-1.6479,-1.6462,-1.6437,-1.6408,-1.6386,-1.6339,-1.6317,-1.6267,-1.6255,-1.6217,-1.6184,-1.6129,-1.6085,-1.6047,-1.6031,-1.604,-1.6025,-1.6037,-1.603,-1.6031,-1.6028,-1.6044,-1.6044,-1.6045,-1.6045,0,-1.658,-1.656,-1.6529,-1.6492,-1.6466,-1.6434,-1.64,-1.6387,-1.6333,-1.631,-1.6274,-1.6249,-1.6198,-1.616,-1.6116,-1.6086,-1.6056,-1.6051,-1.6048,-1.606,-1.6076,-1.6066,-1.6034,-1.605,-1.605,-1.6049,-1.6049,-1.6049,-1.6607,-1.6592,-1.655,-1.6517,-1.6487,-1.6456,-1.6437,-1.6401,-1.6371,-1.6327,-1.6301,-1.6266,-1.6222,-1.616,-1.6132,-1.6102,-1.6091,-1.6088,-1.6087,-1.6087,-1.609,-1.6082,-1.6094,-1.6094,-1.6094,-1.6094,-1.6094,0,-1.6633,-1.6603,-1.6574,-1.6528,-1.6502,-1.6478,-1.6439,-1.6418,-1.6388,-1.6351,-1.6319,-1.6277,-1.624,-1.6194,-1.6154,-1.6139,-1.6124,-1.613,-1.613,-1.6123,-1.6103,-1.6109,-1.6143,-1.6143,-1.6142,-1.6142,-1.6142,-1.6142,-1.6643,-1.6617,-1.6592,-1.655,-1.652,-1.6486,-1.6466,-1.6436,-1.6406,-1.6362,-1.6331,-1.6302,-1.626,-1.6216,-1.6181,-1.6168,-1.6154,-1.6164,-1.6147,-1.6129,-1.6125,-1.612,-1.6125,-1.6162,-1.6162,-1.6169,-1.6169,-1.6169]}]]